Wind_Speed
6 8 7 6 7 5 7 11 8 7 5 4 4 6 1 6 5 8 7 7 6 6 7 6 4 4 4 3 3 4 5 4 3 3 4 5 4 4 4 5 6 7 6
6 5 5 6 6 6 8 11 11 7 8 2 1 1 4 4 2 5 3 9 7 5 5 4 5 4 3 3 3 2 3 3 2 2 3 5 5 5 5 5 6 6 7
5 3 4 3 7 7 7 7 6 9 8 14 7 9 10 8 5 4 3 7 7 6 5 4 3 3 4 3 3 2 2 2 1 0 2 4 5 4 4 4 5 6 6
5 5 5 4 6 8 6 2 5 7 4 8 9 4 13 13 8 5 6 6 6 6 6 5 3 3 2 2 3 2 1 0 0 1 1 2 4 4 3 2 0 3 5
4 2 3 4 7 7 6 3 7 6 7 7 11 5 11 15 9 10 9 5 2 2 4 5 5 5 4 3 2 2 3 3 2 2 4 5 5 4 5 5 6 7 7
3 3 2 1 5 7 6 5 4 5 8 11 11 10 10 8 13 15 14 10 12 8 3 3 6 6 4 3 4 4 4 5 5 5 5 6 7 7 6 6 8 9 9
5 5 4 3 3 5 7 7 7 4 8 13 13 12 13 9 16 15 14 13 12 10 8 7 3 5 5 5 4 6 7 6 7 7 7 6 7 8 8 9 9 10 11
7 5 5 4 3 5 5 7 8 6 7 6 6 11 13 11 11 14 13 10 8 9 8 8 6 5 4 2 0 1 3 4 4 5 7 7 7 8 8 9 9 10 11
10 7 5 4 4 3 6 8 7 8 8 9 10 8 8 11 14 14 13 11 12 10 8 10 7 6 7 5 5 4 3 4 4 3 2 3 4 4 5 5 5 7 7
11 9 7 5 5 4 6 8 7 8 8 11 12 11 10 10 13 12 12 12 14 13 11 10 8 8 7 6 5 5 6 7 8 6 4 3 2 1 2 3 3 4 6
11 9 7 6 6 5 6 8 7 8 9 9 10 11 11 10 10 9 9 13 15 16 15 12 10 8 7 7 5 5 7 7 7 6 6 6 4 5 5 5 5 6 7
11 9 7 5 7 8 7 8 9 9 9 10 10 7 8 9 8 8 9 10 12 13 13 14 12 9 6 6 5 4 4 4 4 3 3 3 4 5 5 6 7 9 9
9 9 8 7 6 10 10 9 9 11 9 10 10 9 7 7 9 10 11 10 10 10 12 12 12 11 7 7 5 5 4 3 3 2 3 2 2 3 5 7 7 9 10
12 12 11 9 8 9 12 13 12 13 10 10 9 8 8 8 7 8 10 11 12 11 10 11 12 11 10 10 7 5 5 5 5 4 3 3 4 5 7 8 8 10 11
15 14 10 9 9 8 12 15 15 14 13 11 11 9 6 5 5 6 8 9 9 10 9 8 8 9 9 7 8 9 9 8 7 7 7 8 9 9 10 10 11 12 12
17 16 12 10 9 9 9 13 17 17 16 13 11 10 8 4 2 1 3 5 7 8 8 8 7 7 8 7 7 8 8 10 10 9 9 9 10 12 13 13 13 13 13
19 18 15 13 11 9 7 8 12 17 16 16 14 12 11 10 7 5 5 6 5 7 9 10 11 11 9 8 9 9 10 10 10 10 9 10 10 12 12 14 13 13 14
20 17 16 13 11 10 9 6 7 11 16 17 18 17 15 15 14 13 11 9 10 11 12 12 11 11 10 10 11 11 14 13 11 11 10 9 9 11 10 12 14 12 14
22 20 17 13 13 11 10 9 8 9 10 14 18 20 20 21 19 19 18 17 16 17 16 14 17 17 16 15 14 12 14 14 14 14 13 10 9 10 10 10 15 15 13
22 22 19 16 14 14 14 13 13 13 13 14 15 18 21 24 24 24 25 24 24 24 24 23 21 22 21 21 20 17 18 17 18 18 16 14 13 10 11 12 14 19 18
22 21 20 18 17 16 15 15 14 15 16 16 17 18 19 21 23 26 28 29 30 30 31 30 29 28 28 27 24 23 25 22 20 22 19 18 18 16 14 14 13 19 23
22 23 22 20 18 18 16 15 15 15 16 17 17 16 17 19 20 22 25 27 30 34 36 37 36 36 33 32 31 30 29 31 27 23 24 24 25 20 16 15 11 16 22
22 23 23 23 22 21 20 19 17 17 19 19 20 21 21 22 21 21 22 25 27 29 34 36 40 40 39 36 35 37 37 36 34 26 32 30 31 26 22 13 7 25 26
26 26 26 25 25 25 25 24 23 24 25 24 24 25 26 26 27 29 30 32 32 33 32 34 38 38 40 38 39 40 42 42 43 40 38 38 30 30 26 19 21 28 34
31 32 33 32 31 30 31 31 32 32 31 29 28 27 28 30 32 34 37 39 40 39 39 38 38 38 39 39 38 41 46 48 48 46 42 41 35 32 32 26 30 30 31
21 22 29 35 38 38 37 35 37 38 35 33 33 29 30 31 34 36 38 40 41 39 44 45 45 44 45 45 46 47 45 48 49 50 45 47 39 36 39 35 41 31 27
Wind_Direction
113 105 90 48 51 51 51 67 58 101 82 336 352 9 81 149 128 95 102 152 137 127 118 118 82 96 71 88 117 128 131 121 104 92 48 35 32 35 34 36 42 43 45
96 118 92 73 63 52 56 75 55 64 77 173 210 210 25 114 94 70 68 158 157 141 115 109 112 116 128 102 101 113 113 116 135 119 39 32 22 20 21 28 35 39 33
108 103 78 78 58 45 61 79 50 51 42 106 83 43 51 63 99 76 123 148 160 155 140 127 132 140 138 123 95 93 88 62 43 99 38 34 21 13 19 22 27 27 23
143 141 125 83 78 69 71 62 69 88 64 76 84 68 77 88 94 107 116 142 119 166 168 172 174 172 167 166 180 166 165 263 332 256 266 324 353 354 342 330 250 353 349
186 132 91 94 73 77 77 55 56 63 80 106 77 117 82 89 55 123 102 109 149 89 193 196 206 200 197 216 211 234 258 275 278 282 281 278 287 293 292 296 304 310 315
197 158 140 149 53 58 71 73 63 59 89 93 86 95 113 87 85 78 73 67 50 77 110 215 214 210 220 241 258 247 268 274 270 261 259 274 277 273 276 282 279 284 291
202 166 170 116 90 67 54 51 84 93 106 104 87 89 129 98 74 62 54 50 64 63 67 76 128 205 221 229 254 257 255 263 266 278 281 282 284 285 282 275 283 289 293
199 177 168 136 119 68 71 78 93 92 107 142 116 111 108 97 88 67 57 54 68 70 60 69 82 104 114 119 107 301 259 269 283 288 287 289 287 282 285 290 296 296 297
201 198 201 161 155 107 94 103 108 94 102 107 120 110 96 92 80 75 68 65 69 72 71 65 56 48 64 60 55 66 52 43 41 2 301 287 295 300 307 310 317 321 322
203 207 212 184 178 146 123 120 115 106 101 103 108 111 113 103 89 79 73 74 76 78 77 81 74 67 59 61 55 60 63 56 52 53 50 38 58 75 45 27 13 351 347
202 207 205 179 184 173 147 138 135 121 116 117 113 112 119 115 104 96 85 74 73 78 77 83 75 71 61 54 45 40 52 52 53 48 42 60 55 52 51 26 5 347 342
200 202 216 199 184 177 166 154 152 151 136 127 120 110 103 110 101 84 77 86 83 86 82 87 84 74 60 53 51 61 64 54 46 46 43 29 7 7 1 347 353 345 339
192 183 194 207 188 176 180 176 170 167 158 146 139 128 103 73 75 72 70 71 73 71 76 76 85 75 60 49 34 35 27 18 23 36 39 357 315 315 311 319 329 325 320
198 206 196 197 205 182 184 185 186 182 175 173 164 145 129 106 82 71 65 60 59 61 64 59 66 72 62 56 45 26 8 337 335 327 331 322 294 290 292 298 301 306 306
202 211 207 199 205 194 192 192 193 195 194 193 189 177 161 125 96 79 68 56 48 41 40 47 46 51 53 35 32 27 15 345 330 321 319 309 296 288 288 291 297 296 298
206 214 212 210 213 208 195 197 201 204 206 209 208 203 205 201 176 10 32 29 15 15 12 10 18 17 14 3 1 0 355 338 341 327 315 314 306 304 301 301 300 294 294
210 208 215 213 215 219 209 200 206 215 217 222 225 224 227 238 244 252 278 300 313 330 341 348 357 359 348 332 333 337 335 336 328 319 302 302 294 293 306 306 298 299 295
223 221 218 213 203 211 222 218 210 219 228 228 232 240 243 252 260 263 269 272 285 300 308 313 323 325 331 328 326 327 330 328 321 313 313 301 285 281 300 305 300 293 295
221 228 228 214 209 220 232 241 250 248 242 241 240 239 242 252 257 265 271 274 279 281 283 291 301 304 308 311 314 326 311 307 305 301 297 290 298 276 272 279 301 305 302
217 222 227 228 233 238 244 247 251 257 257 256 254 254 251 247 251 257 264 267 269 273 277 278 278 283 289 293 300 307 301 299 296 296 292 291 284 273 285 293 307 311 305
218 221 228 232 233 239 244 253 258 260 261 261 258 256 258 261 261 259 258 263 269 271 273 275 277 277 279 283 290 289 291 291 291 289 285 282 282 279 284 284 309 316 311
222 227 229 234 244 245 247 248 252 253 256 257 260 263 266 265 263 265 267 266 266 269 272 275 277 277 278 280 281 282 282 282 283 286 283 281 275 277 280 286 300 308 302
231 229 233 238 244 250 257 258 255 253 256 261 267 271 272 274 275 274 274 274 272 269 274 277 276 277 280 282 281 275 276 277 280 276 273 278 274 271 268 287 320 338 315
235 238 242 243 245 250 254 258 263 264 263 263 265 270 275 279 282 284 283 281 281 281 275 276 278 281 284 282 277 274 272 270 273 278 277 275 275 273 263 261 288 311 312
246 246 246 246 249 252 255 258 260 264 269 273 275 278 282 283 284 281 280 281 283 282 281 279 279 280 278 277 278 274 268 271 275 278 278 273 270 267 263 249 277 294 307
247 248 246 245 245 248 252 255 259 261 263 269 274 280 282 281 282 283 284 283 283 283 283 280 277 275 276 275 272 270 271 271 272 272 275 273 270 266 261 251 275 285 291
Height
3224 3224 3224 3224 3223 3222 3221 3221 3222 3221 3220 3219 3219 3221 3221 3220 3220 3221 3222 3224 3224 3225 3225 3225 3226 3227 3228 3228 3227 3227 3228 3228 3228 3228 3227 3227 3226 3225 3224 3224 3223 3222 3221
3225 3226 3226 3225 3225 3224 3222 3222 3222 3221 3221 3220 3221 3221 3220 3220 3221 3222 3223 3224 3225 3225 3226 3226 3227 3227 3227 3228 3228 3228 3228 3229 3229 3229 3229 3228 3228 3227 3227 3226 3225 3223 3222
3225 3227 3226 3226 3226 3224 3224 3224 3224 3224 3223 3223 3221 3221 3219 3219 3221 3222 3223 3225 3225 3226 3227 3227 3228 3228 3228 3228 3229 3229 3230 3230 3230 3230 3230 3229 3229 3228 3227 3226 3226 3225 3223
3226 3227 3227 3227 3226 3226 3225 3225 3224 3225 3224 3223 3223 3222 3223 3222 3223 3223 3224 3224 3225 3225 3227 3228 3229 3229 3229 3229 3228 3229 3230 3230 3230 3230 3229 3229 3228 3227 3226 3225 3225 3224 3223
3225 3226 3227 3228 3227 3227 3227 3226 3224 3225 3225 3225 3225 3224 3225 3225 3225 3225 3225 3226 3226 3226 3227 3227 3228 3228 3228 3228 3230 3230 3230 3229 3229 3229 3229 3227 3227 3225 3225 3225 3225 3224 3223
3224 3226 3227 3227 3228 3226 3227 3227 3226 3226 3226 3226 3225 3226 3227 3227 3228 3227 3228 3228 3227 3227 3227 3227 3227 3227 3228 3228 3228 3229 3229 3228 3227 3226 3226 3226 3225 3224 3224 3223 3222 3221 3220
3224 3226 3227 3228 3228 3228 3227 3227 3226 3226 3227 3227 3227 3227 3228 3228 3228 3228 3228 3228 3229 3228 3227 3226 3227 3227 3227 3226 3226 3226 3227 3227 3226 3225 3224 3224 3224 3223 3222 3221 3221 3220 3219
3224 3225 3226 3228 3229 3229 3228 3227 3227 3227 3229 3229 3229 3230 3230 3230 3229 3229 3230 3230 3230 3230 3228 3228 3228 3227 3226 3225 3226 3225 3224 3225 3224 3223 3222 3222 3222 3220 3220 3220 3219 3217 3216
3223 3224 3225 3227 3228 3229 3229 3229 3229 3230 3231 3231 3231 3232 3231 3232 3231 3230 3231 3231 3230 3230 3230 3229 3229 3228 3227 3226 3226 3226 3224 3223 3223 3222 3221 3220 3219 3219 3218 3217 3216 3215 3214
3222 3223 3225 3227 3229 3230 3230 3230 3231 3232 3232 3233 3233 3233 3233 3234 3234 3233 3233 3233 3232 3231 3231 3230 3230 3228 3228 3227 3226 3225 3224 3223 3222 3221 3221 3220 3219 3218 3218 3217 3215 3214 3214
3221 3222 3224 3226 3228 3229 3230 3231 3232 3233 3234 3234 3235 3236 3236 3237 3237 3236 3236 3235 3233 3232 3232 3232 3230 3230 3229 3228 3228 3227 3226 3225 3224 3223 3222 3222 3221 3220 3219 3218 3217 3215 3213
3219 3221 3222 3224 3226 3228 3229 3230 3232 3234 3235 3236 3237 3238 3239 3239 3239 3238 3237 3237 3236 3235 3234 3233 3232 3231 3230 3229 3228 3227 3226 3225 3225 3224 3224 3223 3223 3222 3220 3218 3217 3215 3213
3217 3219 3221 3223 3225 3227 3228 3230 3231 3234 3236 3237 3238 3240 3240 3240 3240 3239 3239 3239 3238 3237 3236 3235 3234 3232 3232 3231 3230 3229 3227 3226 3226 3225 3224 3223 3222 3221 3219 3218 3217 3214 3212
3215 3217 3220 3221 3223 3225 3227 3229 3230 3232 3235 3237 3238 3239 3240 3241 3241 3241 3241 3240 3240 3239 3238 3236 3235 3233 3232 3232 3231 3229 3227 3226 3226 3225 3224 3223 3221 3220 3218 3216 3215 3213 3211
3214 3215 3217 3219 3221 3223 3225 3227 3229 3231 3233 3236 3238 3239 3240 3241 3241 3241 3241 3240 3239 3239 3238 3238 3236 3234 3232 3231 3230 3228 3227 3225 3224 3223 3222 3221 3219 3218 3216 3214 3212 3210 3208
3211 3213 3215 3216 3218 3220 3223 3225 3227 3229 3231 3234 3236 3237 3238 3239 3240 3240 3239 3239 3238 3238 3237 3237 3236 3234 3232 3231 3229 3228 3226 3224 3222 3220 3219 3217 3216 3215 3214 3212 3210 3208 3206
3207 3210 3212 3214 3216 3218 3220 3222 3224 3226 3229 3231 3233 3234 3236 3237 3238 3238 3238 3238 3237 3236 3236 3235 3234 3233 3232 3230 3229 3227 3225 3223 3221 3219 3217 3214 3213 3211 3211 3209 3207 3205 3202
3203 3206 3209 3211 3214 3217 3218 3220 3222 3223 3225 3227 3229 3231 3232 3233 3234 3235 3236 3236 3236 3234 3233 3233 3233 3232 3231 3229 3227 3225 3222 3220 3219 3216 3214 3211 3209 3207 3206 3205 3203 3200 3197
3199 3202 3205 3208 3210 3213 3215 3217 3219 3220 3222 3223 3224 3226 3229 3228 3229 3230 3231 3232 3232 3231 3231 3231 3229 3227 3226 3226 3224 3223 3221 3218 3216 3214 3212 3209 3206 3203 3201 3198 3198 3197 3193
3195 3198 3200 3203 3206 3208 3210 3213 3215 3216 3218 3219 3220 3221 3223 3224 3225 3226 3225 3226 3226 3225 3225 3225 3225 3224 3223 3221 3219 3219 3216 3215 3213 3210 3208 3206 3204 3201 3197 3193 3191 3191 3189
3191 3195 3197 3199 3202 3203 3205 3208 3210 3212 3213 3214 3215 3216 3217 3218 3219 3220 3221 3220 3219 3219 3218 3217 3217 3217 3216 3216 3215 3213 3210 3209 3208 3205 3203 3202 3200 3196 3193 3190 3188 3185 3183
3188 3190 3193 3195 3196 3198 3201 3204 3206 3207 3208 3209 3209 3210 3211 3212 3213 3213 3213 3214 3215 3212 3211 3210 3209 3207 3208 3208 3207 3205 3203 3200 3199 3199 3195 3194 3190 3190 3187 3184 3183 3180 3178
3184 3186 3189 3191 3193 3194 3197 3199 3201 3202 3203 3203 3204 3204 3205 3205 3206 3206 3206 3205 3205 3206 3203 3202 3199 3198 3199 3199 3198 3195 3193 3192 3192 3195 3189 3187 3183 3182 3181 3179 3176 3175 3172
3179 3182 3184 3185 3188 3189 3192 3194 3195 3195 3196 3197 3198 3199 3198 3199 3199 3199 3198 3197 3196 3195 3196 3195 3190 3191 3188 3189 3187 3186 3182 3179 3178 3179 3179 3175 3177 3174 3173 3172 3168 3169 3166
3173 3176 3178 3179 3181 3182 3185 3186 3188 3188 3187 3188 3189 3190 3191 3191 3191 3191 3189 3186 3185 3184 3184 3183 3182 3181 3179 3177 3176 3173 3168 3167 3165 3165 3165 3162 3165 3163 3161 3160 3158 3158 3158
3166 3167 3168 3170 3172 3174 3176 3177 3178 3179 3180 3180 3181 3182 3182 3181 3181 3180 3178 3177 3175 3175 3172 3170 3169 3167 3167 3164 3163 3160 3159 3154 3152 3150 3154 3152 3152 3151 3148 3146 3146 3146 3148